Content
SEND FEEDBACK

Daily
Averages
Monthly
Summary
United States of America

WALNUT GROVE, ALABAMA


Home > North America > United States > Alabama
Elevation: 85 feet     Latitude: 34 04N     Longitude: 086 19W

WEATHER
 
SELECT A DAY
Number of Records: 206,237;   Date Range: 3/15/06 - 9/21/14
 
SHARE

PRINT THIS DATA

[ ← Previous Day ]
WEATHER ALMANAC - AUGUST 15, 2014
[ Next Day → ]
[ °C ]   °F
Weather ElementAverageHighLow
Temperature72.4 °F84.2 °F (4:35 pm)60.8 °F (2:15 am)
Dewpoint64.9 °F69.8 °F (8:35 am)60.8 °F (2:15 am)
Humidity79.8 %100 % (12:35 am)51 % (4:35 pm)
Barometer30.04 in30.09 in (9:15 am)30.00 in (7:35 pm)
Wind Speed2.4 mph8.1 mph (11:35 am)
Weather ElementAverage
Visibility9.2 mi
Wind DirectionE (89 °)

Weather ElementTotal
Precipitation---
Cooling Degree Days7.5 (Base 65)
Growing Degree Days22.5 (Base 50)
Averaged from 68 records on August 15, 2014
WEATHER CONDITIONS BREAKOUT
WIND DIRECTION BREAKOUT
WEATHER BY HOUR - AUGUST 15, 2014
[ °C ]   °F
Local TimeTemperatureDewpointHumidityBarometerVisibilityWind DirectionWind SpeedGust SpeedPrecipitationEventsConditions
12:35 AM64.4 °F64.4 °F100 %30.03 in10.0 miCalmClear
12:55 AM64.4 °F64.4 °F100 %30.02 in10.0 miCalmClear
1:15 AM64.4 °F64.4 °F100 %30.02 in10.0 miCalmClear
1:35 AM62.6 °F62.6 °F100 %30.02 in10.0 miCalmClear
1:55 AM62.6 °F62.6 °F100 %30.02 in10.0 miNNE (20°)3.5 mphClear
2:15 AM60.8 °F60.8 °F100 %30.02 in10.0 miNNE (30°)3.5 mphClear
2:35 AM62.6 °F62.6 °F100 %30.02 in10.0 miNNE (30°)3.5 mphClear
2:55 AM62.6 °F62.6 °F100 %30.02 in10.0 miNNE (20°)3.5 mphClear
3:15 AM62.6 °F62.6 °F100 %30.02 in10.0 miCalmClear
3:35 AM62.6 °F62.6 °F100 %30.02 in10.0 miCalmClear
3:55 AM60.8 °F60.8 °F100 %30.02 in10.0 miCalmClear
4:15 AM60.8 °F60.8 °F100 %30.03 in10.0 miCalmClear
4:35 AM60.8 °F60.8 °F100 %30.03 in10.0 miCalmClear
4:55 AM60.8 °F60.8 °F100 %30.03 in10.0 miCalmScattered Clouds
5:35 AM60.8 °F60.8 °F100 %30.04 in10.0 miCalmOvercast
5:55 AM60.8 °F60.8 °F100 %30.05 in10.0 miCalmOvercast
6:15 AM60.8 °F60.8 °F100 %30.05 in0.5 miCalmFogFog
6:35 AM60.8 °F60.8 °F100 %30.06 in0.2 miCalmFogFog
6:55 AM62.6 °F62.6 °F100 %30.07 in0.2 miCalmFogFog
7:15 AM62.6 °F62.6 °F100 %30.07 in0.2 miCalmFogFog
7:35 AM64.4 °F64.4 °F100 %30.07 in0.2 miCalmFogFog
7:55 AM66.2 °F66.2 °F100 %30.07 in5.0 miNorth (10°)3.5 mphMostly Cloudy
8:15 AM68.0 °F68.0 °F100 %30.08 in10.0 miCalmScattered Clouds
8:35 AM69.8 °F69.8 °F100 %30.08 in10.0 miCalmClear
8:55 AM69.8 °F68.0 °F94 %30.08 in10.0 miCalmClear
9:15 AM73.4 °F69.8 °F88 %30.09 in10.0 miCalmMostly Cloudy
9:35 AM73.4 °F68.0 °F83 %30.09 in10.0 miNorth (360°)3.5 mphOvercast
9:55 AM75.2 °F69.8 °F83 %30.09 in10.0 miCalmMostly Cloudy
10:15 AM77.0 °F66.2 °F69 %30.09 in10.0 miNW (310°)3.5 mphScattered Clouds
10:35 AM78.8 °F68.0 °F69 %30.09 in10.0 miWNW (290°)4.6 mphClear
10:55 AM78.8 °F68.0 °F69 %30.09 in10.0 miNNE (30°)4.6 mphScattered Clouds
11:15 AM78.8 °F68.0 °F69 %30.08 in10.0 miCalmScattered Clouds
11:35 AM78.8 °F68.0 °F69 %30.07 in10.0 miNNW (340°)8.1 mphMostly Cloudy
11:55 AM80.6 °F68.0 °F65 %30.07 in10.0 miNNE (30°)4.6 mphScattered Clouds
12:15 PM80.6 °F64.4 °F58 %30.06 in10.0 miNNW (330°)5.8 mphScattered Clouds
12:35 PM80.6 °F64.4 °F58 %30.06 in10.0 miNW (320°)6.9 mphMostly Cloudy
12:55 PM80.6 °F64.4 °F58 %30.04 in10.0 miNNW (340°)6.9 mphScattered Clouds
1:15 PM82.4 °F64.4 °F54 %30.04 in10.0 miNorth (360°)6.9 mphScattered Clouds
1:35 PM82.4 °F64.4 °F54 %30.04 in10.0 miNW (320°)3.5 mphScattered Clouds
1:55 PM80.6 °F64.4 °F58 %30.03 in10.0 miWNW (300°)5.8 mphClear
2:15 PM82.4 °F64.4 °F54 %30.02 in10.0 miNorth (360°)5.8 mphClear
2:35 PM82.4 °F64.4 °F54 %30.02 in10.0 miNorth (350°)6.9 mphClear
2:55 PM82.4 °F66.2 °F58 %30.02 in10.0 miNE (40°)6.9 mphScattered Clouds
3:15 PM82.4 °F64.4 °F54 %30.01 in10.0 miNNE (20°)4.6 mphScattered Clouds
3:35 PM82.4 °F64.4 °F54 %30.01 in10.0 miNNW (340°)6.9 mphScattered Clouds
3:55 PM82.4 °F64.4 °F54 %30.01 in10.0 miNNE (20°)3.5 mphScattered Clouds
4:15 PM82.4 °F64.4 °F54 %30.02 in10.0 miNorth (10°)5.8 mphScattered Clouds
4:35 PM84.2 °F64.4 °F51 %30.02 in10.0 miNorth (10°)6.9 mphClear
4:55 PM82.4 °F64.4 °F54 %30.02 in10.0 miNE (40°)5.8 mphClear
5:15 PM82.4 °F64.4 °F54 %30.01 in10.0 miNorth (10°)3.5 mphClear
5:35 PM82.4 °F64.4 °F54 %30.01 in10.0 miNorth (350°)5.8 mphClear
5:55 PM82.4 °F64.4 °F54 %30.01 in10.0 miNorth (350°)3.5 mphClear
6:15 PM82.4 °F66.2 °F58 %30.01 in10.0 miCalmClear
6:35 PM80.6 °F66.2 °F61 %30.01 in10.0 miCalmClear
6:55 PM80.6 °F66.2 °F61 %30.01 in10.0 miNNW (330°)3.5 mphClear
7:15 PM78.8 °F66.2 °F65 %30.01 in10.0 miCalmClear
7:35 PM77.0 °F68.0 °F74 %30.00 in10.0 miNorth (10°)3.5 mphClear
7:55 PM73.4 °F68.0 °F83 %30.00 in10.0 miNorth (10°)3.5 mphClear
8:15 PM73.4 °F66.2 °F78 %30.00 in10.0 miNorth (360°)3.5 mphClear
8:35 PM73.4 °F68.0 °F83 %30.01 in10.0 miCalmClear
9:15 PM71.6 °F66.2 °F83 %30.02 in10.0 miCalmClear
9:35 PM69.8 °F66.2 °F88 %30.02 in10.0 miCalmClear
9:55 PM69.8 °F66.2 °F88 %30.02 in10.0 miCalmClear
10:15 PM69.8 °F64.4 °F83 %30.02 in10.0 miCalmClear
10:35 PM68.0 °F66.2 °F94 %30.02 in10.0 miCalmClear
11:15 PM68.0 °F64.4 °F88 %30.02 in10.0 miCalmClear
11:35 PM66.2 °F66.2 °F100 %30.01 in10.0 miCalmClear
11:55 PM68.0 °F66.2 °F94 %30.01 in10.0 miCalmClear
Hourly data recorded from K8A0, located miles away from Walnut Grove, Alabama







STORIES FROM OUR PARTNERS